Regional Weather Roundup
Issued by NWS

Home | Current Version | Previous Version | Text Only | Print | Product List | Glossary Off
Versions: 1 2 3 4 5 6 7 8 9 10 11 12 13 14 15 16 17 18 19 20 21 22 23 24 25 26 27 28 29 30 31 32 33 34 35 36 37 38 39 40 41 42 43 44 45 46 47 48 49 50

000
ASUS43 KMPX 280310
RWRMN
WEATHER ROUNDUP FOR MINNESOTA
NATIONAL WEATHER SERVICE TWIN CITIES/CHANHASSEN MN
1000 PM CDT WED AUG 27 2014


NOTE: "FAIR" INDICATES FEW OR NO CLOUDS BELOW 12,000 FEET WITH NO
SIGNIFICANT WEATHER AND/OR OBSTRUCTIONS TO VISIBILITY. N/A MEANS
CURRENT SKY AND/OR WEATHER CONDITIONS ARE NOT AVAILABLE.

MNZ060>063-068>070-280400-
   Twin Cities Metro

CITY           SKY/WX    TMP DP  RH WIND       PRES   REMARKS
TWIN CITIES    PTCLDY    70  58  65 NE7       30.13R
ST PAUL        CLEAR     68  58  70 CALM      30.14R
CRYSTAL        CLEAR     67  57  70 E3        30.12R
BLAINE         CLEAR     64  61  88 CALM      30.14R
LAKEVILLE      CLEAR     61  57  88 CALM      30.14R
EDEN PRAIRIE   MOCLDY    69  58  67 E5        30.12R
SOUTH ST PAUL  CLEAR     67  57  69 CALM      30.13R
LAKE ELMO      FAIR      63  59  88 NE5       30.15R
$$
MNZ001>005-007-008-013>017-022>024-027-028-280400-
   Northwest Minnesota

CITY           SKY/WX    TMP DP  RH WIND       PRES   REMARKS
BEMIDJI        CLEAR     56  52  86 CALM      30.12S
HALLOCK        CLEAR     57  54  88 SE8       30.06S
ROSEAU         CLEAR     61  52  72 SE9       30.09S
WARROAD        CLEAR     55  52  88 SE5       30.10F
THIEF RVR FALL CLEAR     57  54  88 SE5       30.10R
CROOKSTON      CLEAR     61  55  82 SE6       30.09S
FOSSTON        CLEAR     59  54  82 CALM      30.12R
DETROIT LAKES  CLEAR     61  59  94 S5        30.13S
MOORHEAD       PTCLDY    64  63  94 SE6       30.10S
PARK RAPIDS    CLEAR     61  57  87 CALM      30.13S
MAHNOMEN       FAIR      59  56  89 SE5       30.11S
$$
MNZ006-009>011-018-025>026-280400-
   North Central Minnesota

CITY           SKY/WX    TMP DP  RH WIND       PRES   REMARKS
BAUDETTE       CLEAR     57  53  86 CALM      30.11S
FLAG ISLAND    CLEAR     66  52  59 SE8       30.08F
INTL FALLS     CLEAR     50  48  93 CALM      30.12R
WASKISH        CLEAR     54  52  94 CALM      30.11S
BIG FORK       CLEAR     52  50  93 CALM      30.13F
LONGVILLE      CLEAR     55  54  94 CALM      30.13S
GRAND RAPIDS   CLEAR     55  52  88 CALM      30.14S
CRANE LAKE     CLEAR     48  48 100 CALM      30.14F
ORR            CLEAR     52  48  87 CALM      30.11S
COOK           CLEAR     52  50  93 CALM      30.14S
WALKER         FAIR      55  55  98 CALM      30.12S
$$
MNZ012-019>021-037-280400-
   Northeast Minnesota

CITY           SKY/WX    TMP DP  RH WIND       PRES   REMARKS
DULUTH         PTCLDY    59  52  77 CALM      30.15R
ELY            PTCLDY    52  48  87 CALM      30.14S
HIBBING        PTCLDY    52  49  89 CALM      30.14S
EVELETH        CLEAR     52  50  93 CALM      30.15S
DULUTH HARBOR  CLEAR     64  57  77 SW3       30.14R
TWO HARBORS    PTCLDY    54  48  82 CALM      30.13R
SILVER BAY     CLEAR     48  48 100 CALM      30.13S
GRAND MARAIS     N/A     53  49  86 NW3       30.15S
G MARAIS ARPRT MOCLDY    46  45  93 CALM      30.17F
$$
MNZ029>031-032-039>041-046>048-054>057-064-280400-
   West Central Minnesota

CITY           SKY/WX    TMP DP  RH WIND       PRES   REMARKS
FERGUS FALLS   CLOUDY    66  57  72 SE6       30.11R
WHEATON        MOCLDY    63  59  88 E3        30.11S
MORRIS         MOCLDY    66  63  88 E7        30.10S
ALEXANDRIA     MOCLDY    65  59  81 SE6       30.14S
ELBOW LAKE     MOCLDY    66  61  83 SE5       30.12R
WADENA         CLEAR     59  57  94 CALM      30.13S
GLENWOOD       CLEAR     63  59  88 SE5       30.14R
APPLETON       PTCLDY    66  61  82 E6        30.10S
BENSON         PTCLDY    66  61  82 SE6       30.12R
ORTONVILLE     CLOUDY    68  61  77 E6        30.10R
MADISON        CLOUDY    70  63  78 SE7       30.10R
WILLMAR        FAIR      66  59  77 CALM      30.14R
$$
MNZ033>034-036-042>043-049>051-058-059-280400-
   Central Minnesota

CITY           SKY/WX    TMP DP  RH WIND       PRES   REMARKS
ST CLOUD       CLEAR     64  58  80 E5        30.13R
SAUK CENTRE    FAIR      63  59  87 E6        30.14R
PAYNESVILLE    CLEAR     64  57  80 CALM      30.14R
AITKIN           N/A     57  52  82 CALM      30.13F HAZE
PINE RIVER     CLEAR     55  55 100 CALM      30.16S
BRAINERD       CLOUDY    61  58  90 CALM      30.14S
STAPLES        CLEAR     61  57  88 SE3       30.13S
LONG PRAIRIE   MOCLDY    59  57  94 E3        30.14S
LITTLE FALLS   MOCLDY    61  55  82 E3        30.14S
LITCHFIELD     CLEAR     64  61  88 CALM      30.14R
BUFFALO        CLEAR     64  57  76 NE3       30.15R
MAPLE LAKE     CLEAR     64  60  86 E6        30.15R
$$
MNZ037-044-045-052-053-280400-
   East Central Minnesota

CITY           SKY/WX    TMP DP  RH WIND       PRES   REMARKS
PRINCETON      CLEAR     64  59  82 E1        30.14S
MORA           MOCLDY    55  54  94 CALM      30.16S
CAMBRIDGE      CLEAR     64  54  68 CALM      30.13R
RUSH CITY      PTCLDY    60  57  90 CALM      30.14F
MOOSE LAKE     CLEAR     54  52  94 CALM      30.13S
HINCKLEY       FAIR      55  54  94 CALM      30.15S
CLOQUET        CLEAR     59  54  82 SW3       30.15R
MCGREGOR       CLEAR     55  54  94 CALM      30.15S
$$
MNZ071>073-080-081-089-090-097-098-280400-
   Southwest Minnesota

CITY           SKY/WX    TMP DP  RH WIND       PRES   REMARKS
MONTEVIDEO     PTCLDY    64  61  88 S3        30.12R
GRANITE FALLS  CLEAR     65  58  80 E5        30.13R
CANBY          CLOUDY    67  61  82 SE7       30.11S
MARSHALL       PTCLDY    68  57  68 SE10      30.09S
REDWOOD FALLS  CLEAR     64  58  80 SE8       30.11S
OLIVIA         CLEAR     64  57  77 SE5       30.12R
PIPESTONE      CLOUDY    68  63  83 SE5       30.11R
WINDOM         PTCLDY    64  61  88 E6        30.13R
WORTHINGTON    MOCLDY    64  63  94 E6        30.14R
JACKSON        PTCLDY    64  59  82 E6        30.14R
TRACY          PTCLDY    66  62  87 SE3       30.11S
SLAYTON        MOCLDY    65  62  90 CALM      30.13R
$$
MNZ065>067-074>077-082>085-091>093-280400-
   South Central Minnesota

CITY           SKY/WX    TMP DP  RH WIND       PRES   REMARKS
MANKATO        CLEAR     64  55  72 SE6       30.14R
NEW ULM        CLEAR     64  61  88 SE3       30.13S
ST JAMES       CLEAR     63  61  94 CALM      30.14R
FAIRMONT       CLEAR     61  55  82 E6        30.13S
GLENCOE        CLEAR     64  58  80 CALM      30.13R
FARIBAULT      CLEAR     63  55  77 CALM      30.15R
OWATONNA       CLEAR     61  57  88 CALM      30.15R
WASECA         CLEAR     59  52  77 SE3       30.16R
ALBERT LEA     CLEAR     64  57  77 CALM      30.15R
$$
MNZ078>079-086>088-094>096-280400-
   Southeast Minnesota

CITY           SKY/WX    TMP DP  RH WIND       PRES   REMARKS
ROCHESTER      CLEAR     63  58  83 SE5       30.16R
RED WING       MOCLDY    66  61  82 CALM      30.13R
STANTON        CLEAR     63  59  87 SW5       30.13R
DODGE CENTER   CLEAR     63  59  88 CALM      30.15R
WINONA         CLEAR     63  61  94 CALM      30.14R
AUSTIN         CLEAR     61  57  88 CALM      30.15R
PRESTON        CLEAR     64  62  93 CALM      30.16R
$$
ABBREVIATIONS USED IN REMARKS
   TC - TEMPERATURES IN CELSIUS
  WCI - WIND CHILL INDEX
   HX - HEAT INDEX
  VSB - VISIBILITY
$$


USA.gov is the U.S. government's official web portal to all federal, state and local government web resources and services.